When you browse on this site, cookies collect data to enhance your experience and personalize the content and advertising you see.
Visit our Privacy Policy to learn more. By continuing to use the site, you agree to this use of cookies and data.
  • In Hungary
  • List of Countries
  • For 7 days
  • Water Temperature
  • Satellite Maps
  • Weather Map
  • News
  • Weather Widgets
  • user-avatar
    Login

    Hourly Weather Anta

    Today, 17 July, Wednesday

    Time Temperature Precipitation Wind Pressure Humidity
    00:00 +20°C° 0 mm 3 mps 750 mmHg 81%
    01:00 +19°C° 0 mm 3 mps 750 mmHg 83%
    02:00 +19°C° 0 mm 3 mps 750 mmHg 85%
    03:00 +19°C° 0 mm 2 mps 750 mmHg 85%
    04:00 +19°C° 0 mm 2 mps 750 mmHg 85%
    05:00 +19°C° 0 mm 2 mps 751 mmHg 84%
    06:00 +21°C° 0 mm 2 mps 751 mmHg 77%
    07:00 +22°C° 0 mm 3 mps 751 mmHg 69%
    08:00 +25°C° 0 mm 3 mps 751 mmHg 62%
    09:00 +26°C° 0 mm 4 mps 751 mmHg 58%
    10:00 +27°C° 0 mm 5 mps 751 mmHg 54%
    11:00 +29°C° 0 mm 6 mps 751 mmHg 50%
    12:00 +29°C° 0 mm 7 mps 751 mmHg 50%
    13:00 +29°C° 0 mm 8 mps 751 mmHg 50%
    14:00 +29°C° 0 mm 8 mps 751 mmHg 50%
    15:00 +28°C° 0 mm 8 mps 751 mmHg 51%
    16:00 +27°C° 0 mm 8 mps 751 mmHg 53%
    17:00 +27°C° 0 mm 8 mps 751 mmHg 54%
    18:00 +24°C° 0 mm 7 mps 751 mmHg 60%
    19:00 +22°C° 0 mm 7 mps 752 mmHg 65%
    20:00 +20°C° 0 mm 6 mps 752 mmHg 70%
    21:00 +20°C° 0 mm 6 mps 752 mmHg 72%
    22:00 +19°C° 0 mm 5 mps 752 mmHg 74%
    23:00 +19°C° 0 mm 5 mps 752 mmHg 77%

    Tomorrow, 18 July, Thursday

    Time Temperature Precipitation Wind Pressure Humidity
    00:00 +18°C° 0 mm 4 mps 752 mmHg 78%
    01:00 +18°C° 0 mm 4 mps 752 mmHg 78%
    02:00 +17°C° 0 mm 4 mps 752 mmHg 79%
    03:00 +17°C° 0 mm 4 mps 752 mmHg 76%
    04:00 +17°C° 0 mm 3 mps 752 mmHg 72%
    05:00 +17°C° 0 mm 3 mps 752 mmHg 68%
    06:00 +19°C° 0 mm 4 mps 752 mmHg 58%
    07:00 +22°C° 0 mm 4 mps 752 mmHg 48%
    08:00 +25°C° 0 mm 4 mps 752 mmHg 38%
    09:00 +27°C° 0 mm 5 mps 752 mmHg 35%
    10:00 +29°C° 0 mm 6 mps 752 mmHg 32%
    11:00 +32°C° 0 mm 6 mps 752 mmHg 29%
    12:00 +32°C° 0 mm 7 mps 752 mmHg 34%
    13:00 +32°C° 0 mm 8 mps 751 mmHg 38%
    14:00 +31°C° 0 mm 9 mps 751 mmHg 42%
    15:00 +29°C° 0 mm 8 mps 751 mmHg 46%
    16:00 +28°C° 0 mm 8 mps 751 mmHg 51%
    17:00 +27°C° 0 mm 7 mps 750 mmHg 55%
    18:00 +26°C° 0 mm 6 mps 751 mmHg 62%
    19:00 +23°C° 0 mm 5 mps 751 mmHg 68%
    20:00 +21°C° 0 mm 5 mps 751 mmHg 74%
    21:00 +21°C° 0 mm 4 mps 751 mmHg 75%
    22:00 +21°C° 0 mm 3 mps 751 mmHg 77%
    23:00 +20°C° 0 mm 3 mps 751 mmHg 78%

    Day after tomorrow, 19 July, Friday

    Time Temperature Precipitation Wind Pressure Humidity
    00:00 +20°C° 0 mm 2 mps 751 mmHg 77%
    01:00 +20°C° 0 mm 2 mps 751 mmHg 77%
    02:00 +20°C° 0 mm 2 mps 751 mmHg 76%
    03:00 +20°C° 0 mm 2 mps 750 mmHg 75%
    04:00 +20°C° 0 mm 2 mps 750 mmHg 73%
    05:00 +20°C° 0 mm 2 mps 750 mmHg 71%
    06:00 +23°C° 0 mm 2 mps 750 mmHg 62%
    07:00 +26°C° 0 mm 2 mps 750 mmHg 53%
    08:00 +29°C° 0 mm 2 mps 750 mmHg 44%
    09:00 +30°C° 0 mm 3 mps 750 mmHg 41%
    10:00 +32°C° 0 mm 4 mps 750 mmHg 38%
    11:00 +33°C° 0 mm 5 mps 750 mmHg 35%
    12:00 +32°C° 0 mm 5 mps 750 mmHg 36%
    13:00 +32°C° 0 mm 6 mps 750 mmHg 37%
    14:00 +32°C° 0 mm 7 mps 750 mmHg 38%
    15:00 +30°C° 0 mm 7 mps 750 mmHg 42%
    16:00 +29°C° 0 mm 7 mps 750 mmHg 46%
    17:00 +28°C° 0 mm 7 mps 750 mmHg 49%
    18:00 +26°C° 0 mm 6 mps 750 mmHg 57%
    19:00 +23°C° 0 mm 5 mps 750 mmHg 64%
    20:00 +21°C° 0 mm 5 mps 751 mmHg 72%
    21:00 +21°C° 0 mm 4 mps 751 mmHg 74%
    22:00 +20°C° 0 mm 4 mps 751 mmHg 76%
    23:00 +20°C° 0 mm 4 mps 751 mmHg 79%

    20 July, Saturday

    Time Temperature Precipitation Wind Pressure Humidity
    00:00 +20°C° 0 mm 3 mps 751 mmHg 80%
    01:00 +19°C° 0 mm 3 mps 751 mmHg 80%
    02:00 +19°C° 0 mm 3 mps 750 mmHg 81%
    03:00 +19°C° 0 mm 3 mps 750 mmHg 81%
    04:00 +19°C° 0 mm 3 mps 750 mmHg 80%
    05:00 +19°C° 0 mm 3 mps 750 mmHg 79%
    06:00 +21°C° 0 mm 3 mps 751 mmHg 70%
    07:00 +25°C° 0 mm 3 mps 751 mmHg 61%
    08:00 +27°C° 0 mm 4 mps 751 mmHg 52%
    09:00 +28°C° 0 mm 4 mps 751 mmHg 49%
    10:00 +30°C° 0 mm 5 mps 751 mmHg 46%
    11:00 +32°C° 0 mm 6 mps 751 mmHg 43%
    12:00 +32°C° 0 mm 7 mps 751 mmHg 43%
    13:00 +30°C° 0 mm 7 mps 751 mmHg 43%
    14:00 +30°C° 0 mm 7 mps 751 mmHg 43%
    15:00 +29°C° 0 mm 7 mps 751 mmHg 43%
    16:00 +28°C° 0 mm 7 mps 751 mmHg 44%
    17:00 +27°C° 0 mm 7 mps 751 mmHg 45%
    18:00 +24°C° 0 mm 6 mps 751 mmHg 52%
    19:00 +22°C° 0 mm 5 mps 752 mmHg 60%
    20:00 +20°C° 0 mm 5 mps 752 mmHg 67%
    21:00 +20°C° 0 mm 4 mps 752 mmHg 68%
    22:00 +20°C° 0 mm 4 mps 752 mmHg 69%
    23:00 +20°C° 0 mm 3 mps 752 mmHg 70%

    21 July, Sunday

    Time Temperature Precipitation Wind Pressure Humidity
    00:00 +19°C° 0 mm 3 mps 752 mmHg 71%
    01:00 +19°C° 0 mm 3 mps 752 mmHg 72%
    02:00 +19°C° 0 mm 2 mps 751 mmHg 73%
    03:00 +19°C° 0 mm 2 mps 751 mmHg 73%
    04:00 +19°C° 0 mm 2 mps 751 mmHg 73%
    05:00 +19°C° 0 mm 2 mps 752 mmHg 73%
    06:00 +21°C° 0 mm 2 mps 752 mmHg 65%
    07:00 +25°C° 0 mm 2 mps 752 mmHg 56%
    08:00 +28°C° 0 mm 3 mps 752 mmHg 47%
    09:00 +29°C° 0 mm 3 mps 752 mmHg 43%
    10:00 +32°C° 0 mm 4 mps 752 mmHg 39%
    11:00 +33°C° 0 mm 5 mps 752 mmHg 36%
    12:00 +33°C° 0 mm 5 mps 752 mmHg 37%
    13:00 +33°C° 0 mm 5 mps 751 mmHg 38%
    14:00 +32°C° 0 mm 5 mps 751 mmHg 39%
    15:00 +30°C° 0 mm 5 mps 751 mmHg 42%
    16:00 +29°C° 0 mm 5 mps 751 mmHg 46%
    17:00 +28°C° 0 mm 5 mps 751 mmHg 49%
    18:00 +26°C° 0 mm 5 mps 751 mmHg 58%
    19:00 +23°C° 0 mm 4 mps 752 mmHg 68%
    20:00 +20°C° 0 mm 3 mps 752 mmHg 77%
    21:00 +20°C° 0 mm 3 mps 752 mmHg 79%
    22:00 +19°C° 0 mm 3 mps 752 mmHg 81%
    23:00 +19°C° 0 mm 2 mps 752 mmHg 83%

    22 July, Monday

    Time Temperature Precipitation Wind Pressure Humidity
    00:00 +19°C° 0 mm 2 mps 752 mmHg 83%
    01:00 +19°C° 0 mm 2 mps 752 mmHg 84%
    02:00 +18°C° 0 mm 2 mps 752 mmHg 84%
    03:00 +18°C° 0 mm 2 mps 752 mmHg 84%
    04:00 +19°C° 0 mm 1 mps 752 mmHg 84%
    05:00 +19°C° 0 mm 1 mps 752 mmHg 84%
    06:00 +20°C° 0 mm 2 mps 752 mmHg 77%
    07:00 +24°C° 0 mm 2 mps 752 mmHg 69%
    08:00 +26°C° 0 mm 2 mps 753 mmHg 61%
    09:00 +27°C° 0 mm 3 mps 753 mmHg 58%
    10:00 +28°C° 0 mm 4 mps 753 mmHg 54%
    11:00 +29°C° 0 mm 4 mps 753 mmHg 51%
    12:00 +29°C° 0 mm 5 mps 752 mmHg 51%
    13:00 +29°C° 0 mm 5 mps 752 mmHg 52%
    14:00 +29°C° 0 mm 6 mps 752 mmHg 52%
    15:00 +28°C° 0 mm 6 mps 752 mmHg 54%
    16:00 +27°C° 0 mm 6 mps 752 mmHg 55%
    17:00 +27°C° 0 mm 6 mps 752 mmHg 56%
    18:00 +24°C° 0 mm 6 mps 752 mmHg 63%
    19:00 +22°C° 0 mm 5 mps 752 mmHg 71%
    20:00 +20°C° 0 mm 5 mps 753 mmHg 78%
    21:00 +20°C° 0 mm 4 mps 753 mmHg 80%
    22:00 +19°C° 0 mm 3 mps 753 mmHg 81%
    23:00 +19°C° 0 mm 2 mps 752 mmHg 83%
    Show more